Providence, RI

8:28 PM EST on December 16, 2017 (GMT -0500)
Green State

Weather History for KPVD - November, 2012

Change the Weather History Date:

Monday, November 12, 2012

  Actual Average Record
Temperature  
Mean Temperature 57 °F 46 °F  
Max Temperature 68 °F 55 °F 75 °F (1909)
Min Temperature 45 °F 37 °F 21 °F (1926)
Degree Days  
Heating Degree Days 8 19  
Month to date heating degree days 235 213  
Since 1 July heating degree days 579 671  
Cooling Degree Days 0 0  
Month to date cooling degree days 0 0  
Year to date cooling degree days 834 744  
Growing Degree Days 6 (Base 50)    
Moisture  
Dew Point 53 °F    
Average Humidity 82    
Maximum Humidity 100    
Minimum Humidity 63    
Precipitation  
Precipitation 0.00 in 0.15 in 3.46 in (1947)
Month to date precipitation 0.42 1.71  
Year to date precipitation 35.15 40.16  
Snow  
Snow 0.00 in 0.00 in 7.30 in (1987)
Month to date snowfall 1.3 0.2  
Since 1 July snowfall 1.3 0.2  
Since 1 September snowfall 1.3 0.2  
Snow Depth 0.00 in    
Sea Level Pressure  
Sea Level Pressure 30.43 in    
Wind  
Wind Speed 9 mph (South)    
Max Wind Speed 20 mph    
Max Gust Speed 28 mph    
Visibility 6 miles    
Events Fog    
T = Trace of Precipitation, MM = Missing Value Source: NWS Daily Summary

Daily Weather History Graph

Daily Weather History Graph

Search for Another Location

Airport or City:

Trip Planner

Search our weather history database for the weather conditions in past years. The results will help you decide how hot, cold, wet, or windy it might be!

Date:

Astronomy

Nov. 12, 2012 Rise Set
Actual Time 6:31 AM EST 4:27 PM EST
Civil Twilight 6:02 AM EST 4:57 PM EST
Nautical Twilight 5:28 AM EST 5:30 PM EST
Astronomical Twilight 4:55 AM EST 6:03 PM EST
Moon 4:52 AM EST (11/12) 3:30 PM EST (11/12)
Length of Visible Light 10h 55m
Length of Day
9h 55m
Waning Crescent, 2% of the Moon is Illuminated
Nov 12
Waning Crescent
Nov 13
New
Nov 20
First Quarter
Nov 28
Full
Dec 6
Last Quarter

Hourly Weather History & Observations

Time (EST) Temp. Windchill Dew Point Humidity Pressure Visibility Wind Dir Wind Speed Gust Speed Precip Events Conditions
12:51 AM 48.9 °F - 48.0 °F 97% 30.49 in 5.0 mi South 5.8 mph - N/A   Clear
1:51 AM 48.9 °F - 48.0 °F 97% 30.49 in 4.0 mi South 5.8 mph - N/A   Clear
2:51 AM 48.9 °F - 48.0 °F 97% 30.49 in 5.0 mi South 5.8 mph - N/A   Clear
3:51 AM 46.9 °F - 46.0 °F 97% 30.48 in 3.0 mi South 5.8 mph - N/A   Clear
4:01 AM 46.4 °F 44.3 °F 46.4 °F 100% 30.48 in 2.0 mi SSE 4.6 mph - N/A   Clear
4:31 AM 46.4 °F 44.3 °F 46.4 °F 100% 30.49 in 1.8 mi SSE 4.6 mph - N/A   Partly Cloudy
4:47 AM 46.4 °F 43.5 °F 46.4 °F 100% 30.48 in 0.5 mi South 5.8 mph - N/A Fog Fog
4:49 AM 46.4 °F 43.5 °F 46.4 °F 100% 30.48 in 0.2 mi South 5.8 mph - N/A Fog Fog
4:51 AM 46.0 °F 43.1 °F 46.0 °F 100% 30.48 in 0.2 mi South 5.8 mph - N/A Fog Fog
5:35 AM 50.0 °F - 48.2 °F 94% 30.48 in 0.2 mi SSW 5.8 mph - N/A Fog Fog
5:51 AM 50.0 °F - 50.0 °F 100% 30.48 in 0.2 mi SSW 5.8 mph - N/A Fog Fog
6:05 AM 51.8 °F - 51.8 °F 100% 30.48 in 0.2 mi SSW 6.9 mph - N/A Fog Fog
6:24 AM 53.6 °F - 51.8 °F 94% 30.49 in 0.8 mi SSW 5.8 mph - N/A   Overcast
6:51 AM 53.1 °F - 53.1 °F 100% 30.50 in 1.0 mi SSW 5.8 mph - N/A   Overcast
7:11 AM 53.6 °F - 53.6 °F 100% 30.50 in 2.0 mi South 8.1 mph - N/A   Overcast
7:24 AM 53.6 °F - 53.6 °F 100% 30.50 in 2.0 mi South 9.2 mph - N/A   Mostly Cloudy
7:39 AM 53.6 °F - 53.6 °F 100% 30.50 in 4.0 mi South 6.9 mph - N/A   Mostly Cloudy
7:51 AM 55.0 °F - 54.0 °F 96% 30.50 in 5.0 mi SSW 10.4 mph - N/A   Mostly Cloudy
8:36 AM 55.4 °F - 53.6 °F 94% 30.49 in 7.0 mi SSW 8.1 mph - N/A   Mostly Cloudy
8:51 AM 55.9 °F - 53.1 °F 90% 30.49 in 10.0 mi SSW 8.1 mph - N/A   Mostly Cloudy
9:51 AM 61.0 °F - 53.1 °F 75% 30.48 in 10.0 mi South 6.9 mph - N/A   Mostly Cloudy
10:51 AM 64.9 °F - 54.0 °F 68% 30.46 in 10.0 mi SSW 13.8 mph 19.6 mph N/A   Scattered Clouds
11:51 AM 64.9 °F - 54.0 °F 68% 30.44 in 10.0 mi SSW 9.2 mph - N/A   Mostly Cloudy
12:51 PM 66.9 °F - 54.0 °F 63% 30.43 in 10.0 mi SSW 11.5 mph 21.9 mph N/A   Mostly Cloudy
1:51 PM 66.0 °F - 55.0 °F 68% 30.42 in 10.0 mi South 17.3 mph 23.0 mph N/A   Mostly Cloudy
2:08 PM 64.4 °F - 55.4 °F 73% 30.40 in 10.0 mi South 13.8 mph 20.7 mph N/A   Mostly Cloudy
2:30 PM 66.2 °F - 55.4 °F 68% 30.40 in 10.0 mi SSW 13.8 mph - N/A   Mostly Cloudy
2:51 PM 64.9 °F - 55.0 °F 70% 30.40 in 10.0 mi SSW 15.0 mph 20.7 mph N/A   Scattered Clouds
3:51 PM 63.0 °F - 54.0 °F 72% 30.38 in 10.0 mi South 8.1 mph - N/A   Scattered Clouds
4:29 PM 60.8 °F - 53.6 °F 77% 30.38 in 10.0 mi South 5.8 mph - N/A   Mostly Cloudy
4:51 PM 59.0 °F - 54.0 °F 83% 30.38 in 10.0 mi SSE 6.9 mph - N/A   Mostly Cloudy
5:51 PM 60.1 °F - 55.0 °F 83% 30.36 in 10.0 mi South 8.1 mph - N/A   Overcast
6:51 PM 61.0 °F - 57.0 °F 87% 30.35 in 10.0 mi South 10.4 mph - N/A   Overcast
7:51 PM 60.1 °F - 57.0 °F 90% 30.33 in 10.0 mi South 9.2 mph - N/A   Mostly Cloudy
8:51 PM 60.1 °F - 57.0 °F 90% 30.32 in 10.0 mi South 9.2 mph - N/A   Mostly Cloudy
9:51 PM 61.0 °F - 57.9 °F 90% 30.30 in 10.0 mi South 10.4 mph - N/A   Scattered Clouds
10:51 PM 62.1 °F - 59.0 °F 90% 30.27 in 10.0 mi South 11.5 mph - N/A   Mostly Cloudy
11:51 PM 63.0 °F - 59.0 °F 87% 30.26 in 10.0 mi South 11.5 mph - N/A   Mostly Cloudy